Weather History for KLNP - March, 2012

Change the Weather History Date:

Monday, March 5, 2012

  Actual Average Record
Temperature  
Mean Temperature 32 °F -  
Max Temperature 35 °F 46 °F 66 °F (2004)
Min Temperature 30 °F 29 °F 14 °F (2015)
Degree Days  
Heating Degree Days 32    
Moisture  
Dew Point 28 °F    
Average Humidity 87    
Maximum Humidity 100    
Minimum Humidity 65    
Precipitation  
Precipitation 0.02 in - - ()
Sea Level Pressure  
Sea Level Pressure 30.07 in    
Wind  
Wind Speed 11 mph (WNW)    
Max Wind Speed 26 mph    
Max Gust Speed 40 mph    
Visibility 6 miles    
Events Snow    
Averages and records for this station are not official NWS values.
T = Trace of Precipitation, MM = Missing Value Source: NWS Daily Summary

Daily Weather History Graph

Daily Weather History Graph

Search for Another Location

Airport or City:

Trip Planner

Search our weather history database for the weather conditions in past years. The results will help you decide how hot, cold, wet, or windy it might be!

Date:

Astronomy

Mar. 05, 2012 Rise Set
Actual Time 6:54 AM EST 6:28 PM EST
Civil Twilight 6:28 AM EST 6:54 PM EST
Nautical Twilight 5:58 AM EST 7:24 PM EST
Astronomical Twilight 5:28 AM EST 7:54 PM EST
Moon 3:48 PM EST (3/5) 4:49 AM EST (3/5)
Length of Visible Light 12h 25m
Length of Day
11h 33m
Waxing Gibbous, 91% of the Moon is Illuminated
Mar 5
Waxing Gibbous
Mar 8
Full
Mar 14
Last Quarter
Mar 22
New
Mar 30
First Quarter

Hourly Weather History & Observations

Time (EST) Temp. Windchill Dew Point Humidity Pressure Visibility Wind Dir Wind Speed Gust Speed Precip Events Conditions
12:15 AM 32.0 °F 23.6 °F 30.2 °F 93% 29.88 in 0.5 mi SW 10.4 mph 18.4 mph N/A Snow Light Snow
12:35 AM 32.0 °F 24.8 °F 32.0 °F 100% 29.86 in 1.0 mi SW 8.1 mph - N/A Snow Light Snow
12:55 AM 32.0 °F - 32.0 °F 100% 29.84 in 2.5 mi Calm Calm - N/A Snow Light Snow
1:15 AM 32.0 °F 27.5 °F 32.0 °F 100% 29.82 in 5.0 mi SSE 4.6 mph - N/A Snow Light Snow
1:35 AM 32.0 °F 23.6 °F 32.0 °F 100% 29.81 in 10.0 mi South 10.4 mph - N/A   Overcast
1:55 AM 32.0 °F 23.6 °F 30.2 °F 93% 29.81 in 10.0 mi SSW 10.4 mph - N/A   Mostly Cloudy
2:15 AM 32.0 °F 22.1 °F 32.0 °F 100% 29.80 in 1.2 mi SSW 13.8 mph 19.6 mph N/A Snow Light Snow
2:35 AM 32.0 °F 23.0 °F 32.0 °F 100% 29.78 in 5.0 mi South 11.5 mph 18.4 mph N/A Snow Light Snow
2:55 AM 32.0 °F 24.2 °F 32.0 °F 100% 29.75 in 0.2 mi South 9.2 mph 24.2 mph N/A Snow Light Snow
3:15 AM 32.0 °F 24.8 °F 32.0 °F 100% 29.74 in 10.0 mi South 8.1 mph - N/A   Overcast
3:35 AM 32.0 °F 24.2 °F 32.0 °F 100% 29.75 in 10.0 mi South 9.2 mph - N/A   Overcast
3:55 AM 33.8 °F 22.5 °F 32.0 °F 93% 29.74 in 10.0 mi SW 19.6 mph 25.3 mph N/A   Overcast
4:15 AM 33.8 °F 23.9 °F 32.0 °F 93% 29.76 in 10.0 mi SW 15.0 mph 23.0 mph N/A   Overcast
4:35 AM 33.8 °F 26.4 °F 32.0 °F 93% 29.75 in 10.0 mi SW 9.2 mph - N/A   Overcast
4:55 AM 33.8 °F 23.2 °F 32.0 °F 93% 29.76 in 3.0 mi SW 17.3 mph 23.0 mph N/A Snow Light Snow
5:15 AM 32.0 °F 21.2 °F 32.0 °F 100% 29.79 in 0.2 mi WSW 16.1 mph 19.6 mph N/A Snow Snow
5:35 AM 33.8 °F 25.8 °F 33.8 °F 100% 29.80 in 5.0 mi WSW 10.4 mph 18.4 mph N/A Snow Light Snow
5:55 AM 33.8 °F 25.8 °F 33.8 °F 100% 29.82 in 2.5 mi West 10.4 mph 17.3 mph N/A Snow Light Snow
6:15 AM 33.8 °F 20.8 °F 32.0 °F 93% 29.86 in 0.5 mi WNW 26.5 mph 40.3 mph 0.01 in Snow Light Snow
6:35 AM 32.0 °F 20.5 °F 32.0 °F 100% 29.88 in 2.0 mi West 18.4 mph 29.9 mph 0.01 in Snow Light Snow
6:55 AM 32.0 °F 20.1 °F 32.0 °F 100% 29.91 in 0.8 mi WNW 19.6 mph 26.5 mph 0.01 in Snow Light Snow
7:15 AM 30.2 °F 21.9 °F 30.2 °F 100% 29.95 in 0.8 mi WNW 9.2 mph 18.4 mph N/A Snow Light Snow
7:35 AM 30.2 °F 19.3 °F 30.2 °F 100% 29.98 in 1.0 mi NW 15.0 mph 24.2 mph N/A Snow Light Snow
7:55 AM 30.2 °F 20.2 °F 30.2 °F 100% 30.01 in 5.0 mi WNW 12.7 mph 20.7 mph N/A Snow Light Snow
8:15 AM 30.2 °F 19.8 °F 28.4 °F 93% 30.04 in 1.8 mi WNW 13.8 mph 20.7 mph N/A Snow Light Snow
8:35 AM 30.2 °F 19.8 °F 28.4 °F 93% 30.06 in 1.0 mi NW 13.8 mph 18.4 mph 0.01 in Snow Light Snow
8:55 AM 30.2 °F 20.2 °F 30.2 °F 100% 30.08 in 1.0 mi NW 12.7 mph 19.6 mph 0.01 in Snow Light Snow
9:15 AM 30.2 °F 19.3 °F 28.4 °F 93% 30.09 in 1.0 mi NW 15.0 mph 19.6 mph N/A Snow Light Snow
9:35 AM 30.2 °F 21.3 °F 28.4 °F 93% 30.11 in 1.5 mi NW 10.4 mph - N/A Snow Light Snow
9:55 AM 30.2 °F 21.9 °F 28.4 °F 93% 30.13 in 1.2 mi NW 9.2 mph - N/A Snow Light Snow
10:15 AM 30.2 °F 20.8 °F 26.6 °F 86% 30.14 in 3.0 mi West 11.5 mph 18.4 mph N/A Snow Light Snow
10:35 AM 30.2 °F 21.3 °F 26.6 °F 86% 30.16 in 5.0 mi WNW 10.4 mph 18.4 mph N/A Snow Light Snow
10:55 AM 30.2 °F 20.8 °F 26.6 °F 86% 30.17 in 0.8 mi WNW 11.5 mph - N/A Snow Light Snow
11:15 AM 32.0 °F 24.8 °F 28.4 °F 87% 30.18 in 1.5 mi WNW 8.1 mph - N/A Snow Light Snow
11:35 AM 32.0 °F 20.8 °F 26.6 °F 80% 30.20 in 10.0 mi WNW 17.3 mph 23.0 mph N/A   Overcast
11:55 AM 32.0 °F 21.2 °F 23.0 °F 69% 30.21 in 7.0 mi West 16.1 mph 26.5 mph N/A Snow Light Snow
12:15 PM 30.2 °F 22.6 °F 28.4 °F 93% 30.22 in 0.5 mi NW 8.1 mph - N/A Snow Snow
12:35 PM 32.0 °F 24.2 °F 26.6 °F 80% 30.22 in 10.0 mi WNW 9.2 mph - N/A   Overcast
12:55 PM 32.0 °F 24.8 °F 28.4 °F 87% 30.23 in 0.8 mi WNW 8.1 mph - N/A Snow Light Snow
1:15 PM 33.8 °F 24.8 °F 26.6 °F 75% 30.24 in 10.0 mi NW 12.7 mph 20.7 mph N/A   Overcast
1:35 PM 32.0 °F 22.1 °F 26.6 °F 80% 30.25 in 7.0 mi West 13.8 mph 20.7 mph N/A Snow Light Snow
1:55 PM 32.0 °F 24.2 °F 24.8 °F 75% 30.25 in 10.0 mi NW 9.2 mph 17.3 mph N/A   Overcast
2:15 PM 32.0 °F 23.6 °F 26.6 °F 80% 30.26 in 4.0 mi West 10.4 mph 16.1 mph N/A Snow Light Snow
2:35 PM 32.0 °F 23.6 °F 26.6 °F 80% 30.27 in 5.0 mi WNW 10.4 mph - N/A Snow Light Snow
2:55 PM 32.0 °F 22.5 °F 24.8 °F 75% 30.27 in 10.0 mi West 12.7 mph 18.4 mph N/A   Overcast
3:15 PM 33.8 °F 25.8 °F 26.6 °F 75% 30.28 in 10.0 mi West 10.4 mph 17.3 mph N/A   Overcast
3:35 PM 35.6 °F 29.2 °F 26.6 °F 70% 30.29 in 10.0 mi NW 8.1 mph 19.6 mph N/A   Overcast
3:55 PM 33.8 °F 27.0 °F 24.8 °F 70% 30.30 in 10.0 mi NW 8.1 mph - N/A   Overcast
4:15 PM 33.8 °F 26.4 °F 24.8 °F 70% 30.31 in 10.0 mi NNW 9.2 mph - N/A   Overcast
4:35 PM 33.8 °F 26.4 °F 23.0 °F 65% 30.32 in 10.0 mi NW 9.2 mph - N/A   Mostly Cloudy
4:55 PM 33.8 °F 25.8 °F 23.0 °F 65% 30.33 in 10.0 mi NW 10.4 mph - N/A   Scattered Clouds
5:15 PM 32.0 °F 24.8 °F 23.0 °F 69% 30.34 in 10.0 mi NW 8.1 mph - N/A   Mostly Cloudy
5:35 PM 32.0 °F 26.4 °F 23.0 °F 69% 30.35 in 10.0 mi NW 5.8 mph - N/A   Scattered Clouds
5:55 PM 32.0 °F 26.4 °F 23.0 °F 69% 30.35 in 10.0 mi NNW 5.8 mph - N/A   Scattered Clouds
6:15 PM 32.0 °F 25.6 °F 23.0 °F 69% 30.36 in 10.0 mi NNW 6.9 mph - N/A   Scattered Clouds
6:35 PM 30.2 °F 23.4 °F 23.0 °F 75% 30.37 in 10.0 mi NNW 6.9 mph - N/A   Clear
6:55 PM 30.2 °F 23.4 °F 23.0 °F 75% 30.37 in 10.0 mi NNW 6.9 mph - N/A   Clear
7:15 PM 30.2 °F 23.4 °F 23.0 °F 75% 30.38 in 10.0 mi North 6.9 mph - N/A   Clear
7:35 PM 28.4 °F 21.2 °F 23.0 °F 80% 30.39 in 10.0 mi NNW 6.9 mph - N/A   Clear
7:55 PM 28.4 °F 23.3 °F 23.0 °F 80% 30.40 in 10.0 mi North 4.6 mph - N/A   Clear
8:15 PM 28.4 °F 23.3 °F 23.0 °F 80% 30.40 in 10.0 mi NNW 4.6 mph - N/A   Clear
8:35 PM 28.4 °F 24.6 °F 23.0 °F 80% 30.41 in 10.0 mi NNW 3.5 mph - N/A   Clear
8:55 PM 26.6 °F - 23.0 °F 86% 30.41 in 10.0 mi Calm Calm - N/A   Clear
9:15 PM 26.6 °F - 23.0 °F 86% 30.41 in 10.0 mi Calm Calm - N/A   Clear
9:35 PM 26.6 °F - 23.0 °F 86% 30.41 in 10.0 mi Calm Calm - N/A   Clear
9:55 PM 24.8 °F - 21.2 °F 86% 30.42 in 10.0 mi Calm Calm - N/A   Clear
10:15 PM 26.6 °F - 23.0 °F 86% 30.42 in 10.0 mi Calm Calm - N/A   Clear
10:35 PM 26.6 °F - 23.0 °F 86% 30.41 in 10.0 mi Calm Calm - N/A   Clear
10:55 PM 26.6 °F 22.6 °F 23.0 °F 86% 30.40 in 10.0 mi East 3.5 mph - N/A   Clear
11:15 PM 23.0 °F - 21.2 °F 93% 30.41 in 10.0 mi Calm Calm - N/A   Clear
11:35 PM 23.0 °F - 21.2 °F 93% 30.41 in 10.0 mi Calm Calm - N/A   Clear
11:55 PM 23.0 °F - 21.2 °F 93% 30.40 in 10.0 mi Calm Calm - N/A   Clear